"Pseudo-MPEC" for P222GIU

Created 2024 Dec 2 23:31:26 UT using Find_Orb

Click here for an explanation of pseudo-MPECs

 
 Astrometry: 
     P222GIU* C2024 11 29.37110005 25 41.248+13 15 03.20   ~BTDV 21.22wXNEOCPF52
     P222GIU* C2024 11 29.38248105 25 40.168+13 15 32.68   ~BTCl 20.98wXNEOCPF52
     P222GIU  C2024 11 29.39260905 25 39.197+13 15 58.88   ~BTDV 21.36wXNEOCPF52
     P222GIU  C2024 11 29.39324005 25 39.140+13 16 00.58   ~BTCl 21.43wXNEOCPF52
     P222GIU  C2024 11 29.40342705 25 38.168+13 16 26.99   ~BTDV 21.25wXNEOCPF52
     P222GIU  C2024 11 29.40405805 25 38.112+13 16 28.50   ~BTCl 21.08wXNEOCPF52
     P222GIU 1C2024 11 29.95588005 24 49.597+13 40 08.90   ~BU0H 21.4 GXNEOCP033
     P222GIU 1C2024 11 29.95752005 24 49.388+13 40 13.59   ~BU0H 21.2 GXNEOCP033
     P222GIU 1C2024 11 29.95916005 24 49.248+13 40 18.00   ~BU0H 21.0 GXNEOCP033
     P222GIU KC2024 11 30.24533905 24 23.61 +13 52 57.2    ~BU6V 21.2 GVNEOCPH21
     P222GIU KC2024 11 30.24823005 24 23.33 +13 53 04.8    ~BU6V 21.2 GVNEOCPH21
     P222GIU KC2024 11 30.25140905 24 23.02 +13 53 13.1    ~BU6V 21.1 GVNEOCPH21
     P222GIU KC2024 12 01.22451105 22 53.504+14 37 00.44   ~C15l 21.24GVNEOCPI52
     P222GIU KC2024 12 01.22579905 22 53.386+14 37 04.22   ~C15l 21.31GVNEOCPI52
     P222GIU KC2024 12 01.22928405 22 53.018+14 37 14.02   ~C15l 20.87GVNEOCPI52

Station data:
(033) Karl Schwarzschild Observatory, Tautenburg  (N50.980139 E11.711240)
   Germany.  Observer B. Stecklum. 1.34-m f/3 Schmidt + CCD.
(F52) Pan-STARRS 2, Haleakala  (N20.707382 W156.255910)  US/Hawaii.
   Observers J. Bulger, T. Dukes, T. Lowe, A. Schultz, M. Willman. Measurers
   K. Chambers, S. Chastel, T. de Boer, L. Denneau, J. Fairlamb, H.
   Flewelling, M. Huber, C.-C. Lin, E. Magnier, Y. Ramanjooloo, R. Wainscoat,
   R. Weryk. 1.8-m Ritchey-Chrétien + CCD.
(H21) Astronomical Research Observatory, Westfield  (N39.483054 W87.968270)
   US/Illinois.  Observer R. Holmes. Measurers S. Foglia, L. Buzzi, T.
   Linder, R. Holmes. 0.76-m f/3.0 astrograph + CCD0.81-m f/4.0 astrograph +
   CCD0.61-m f/4.5 astrograph + CCD0.40-m f/5.32 astrograph + CCD.
(I52) Steward Observatory, Mt. Lemmon Station  (N32.442570 W110.788920)
   US/Arizona.  Observers T. A. Pruyne, B. M. Africano, E. J. Christensen, G.
   A. Farneth, D. C. Fuls, A. R. Gibbs, A. D. Grauer, H. Gröller, J. A.
   Johnson, R. A. Kowalski, S. M. Larson, G. J. Leonard, D. Rankin, R. L.
   Seaman, F. C. Shelly, K. W. Wierzchoś. 1.0-m prime focus + CCD.

Orbital elements:  P222GIU
   Perihelion 2025 Feb 22.50047 +/- 0.158 TT = 12:00:40 (JD 2460729.00047)
Epoch 2024 Dec  1.0 TT = JDT 2460645.5   Earth MOID: 0.2480      AutoNEOCP
M 316.03093500 +/- 0.7              (J2000 ecliptic)
n   0.52657264 +/- 0.0095           Peri.   61.97230 +/- 0.26
a   1.51878810 +/- 0.0183           Node    78.32529 +/- 0.011
e   0.2501266 +/- 0.0082            Incl.   18.79690 +/- 0.40
P   1.872/683.653d         H 22.38  G  0.15   U  9.6
q 1.13889868 +/- 0.00244    Q 1.89867753 +/- 0.0352
From 15 observations 2024 Nov. 29-Dec. 1 (44.6 hr); mean residual 0".14
Residuals in arcseconds: 
241129 F52  .09+  .07-    241129 F52  .02+  .01-    241130 H21  .03+  .03+    
241129 F52  .04+  .04-    241129 033  .48+  .27-    241130 H21  .10+  .12-    
241129 F52  .09-  .03-    241129 033  .28-  .11+    241201 I52  .12-  .20-    
241129 F52  .04-  .04+    241129 033  .03-  .21+    241201 I52  .09+  .01+    
241129 F52  .05-  .11+    241130 H21  .06-  .11+    241201 I52  .04-  .16+    

Ephemerides (geocentric):
Date (UTC) HH   RA             Dec           delta  r     elong  mag " sig PA
---- --------  ------------   ------------  ------ ------ -----  --- --------
2024 12 03 00  05 19 55.135   +16 00 52.68  .31792 1.2987 168.3 21.1 .493  35
2024 12 03 01  05 19 50.777   +16 02 54.11  .31773 1.2986 168.4 21.1 .515  33
2024 12 03 02  05 19 46.410   +16 04 55.71  .31754 1.2984 168.4 21.1 .538  32
2024 12 03 03  05 19 42.034   +16 06 57.47  .31735 1.2983 168.5 21.0 .562  30
2024 12 03 04  05 19 37.650   +16 08 59.39  .31716 1.2982 168.6 21.0 .586  29
2024 12 03 05  05 19 33.256   +16 11 01.47  .31697 1.2980 168.6 21.0 .611  28
2024 12 03 06  05 19 28.853   +16 13 03.71  .31678 1.2979 168.7 21.0 .637  26
2024 12 03 07  05 19 24.441   +16 15 06.12  .31659 1.2977 168.8 21.0 .664  25
2024 12 03 08  05 19 20.021   +16 17 08.68  .31640 1.2976 168.8 21.0 .691  24
2024 12 03 09  05 19 15.591   +16 19 11.41  .31621 1.2975 168.9 21.0 .720  23
2024 12 03 10  05 19 11.153   +16 21 14.30  .31602 1.2973 169.0 21.0 .749  22
2024 12 03 11  05 19 06.705   +16 23 17.35  .31584 1.2972 169.0 21.0 .779  21
2024 12 03 12  05 19 02.249   +16 25 20.56  .31565 1.2971 169.1 21.0 .809  20
2024 12 03 13  05 18 57.783   +16 27 23.93  .31546 1.2969 169.2 21.0 .841  19
2024 12 03 14  05 18 53.309   +16 29 27.46  .31528 1.2968 169.2 21.0 .873  18
2024 12 03 15  05 18 48.826   +16 31 31.15  .31509 1.2966 169.3 21.0 .905  18
2024 12 03 16  05 18 44.333   +16 33 35.00  .31490 1.2965 169.4 21.0 .939  17
2024 12 03 17  05 18 39.832   +16 35 39.01  .31472 1.2964 169.4 21.0 .973  16
2024 12 03 18  05 18 35.322   +16 37 43.18  .31453 1.2962 169.5 21.0 1.01  15
2024 12 03 19  05 18 30.803   +16 39 47.52  .31435 1.2961 169.6 21.0 1.04  15
2024 12 03 20  05 18 26.275   +16 41 52.01  .31417 1.2959 169.6 21.0 1.08  14
2024 12 03 21  05 18 21.738   +16 43 56.66  .31398 1.2958 169.7 21.0 1.12  13
2024 12 03 22  05 18 17.192   +16 46 01.47  .31380 1.2957 169.8 21.0 1.16  13
2024 12 03 23  05 18 12.637   +16 48 06.44  .31362 1.2955 169.8 21.0 1.20  12
2024 12 04 00  05 18 08.074   +16 50 11.57  .31343 1.2954 169.9 21.0 1.23  12
2024 12 04 01  05 18 03.501   +16 52 16.85  .31325 1.2953 170.0 21.0 1.27  11
2024 12 04 02  05 17 58.919   +16 54 22.30  .31307 1.2951 170.0 21.0 1.32  11
2024 12 04 03  05 17 54.329   +16 56 27.90  .31289 1.2950 170.1 21.0 1.36  10
2024 12 04 04  05 17 49.729   +16 58 33.67  .31270 1.2948 170.2 21.0 1.40  10
2024 12 04 05  05 17 45.121   +17 00 39.59  .31252 1.2947 170.3 21.0 1.44   9
2024 12 04 06  05 17 40.504   +17 02 45.67  .31234 1.2946 170.3 20.9 1.49   9
2024 12 04 07  05 17 35.878   +17 04 51.90  .31216 1.2944 170.4 20.9 1.53   8
2024 12 04 08  05 17 31.243   +17 06 58.30  .31198 1.2943 170.5 20.9 1.58   8
2024 12 04 09  05 17 26.599   +17 09 04.85  .31180 1.2942 170.5 20.9 1.63   7
2024 12 04 10  05 17 21.946   +17 11 11.56  .31162 1.2940 170.6 20.9 1.67   7
2024 12 04 11  05 17 17.284   +17 13 18.42  .31145 1.2939 170.7 20.9 1.72   7
2024 12 04 12  05 17 12.613   +17 15 25.45  .31127 1.2937 170.7 20.9 1.77   6
2024 12 04 13  05 17 07.934   +17 17 32.63  .31109 1.2936 170.8 20.9 1.82   6
2024 12 04 14  05 17 03.245   +17 19 39.97  .31091 1.2935 170.9 20.9 1.87   5
2024 12 04 15  05 16 58.548   +17 21 47.46  .31074 1.2933 170.9 20.9 1.92   5
2024 12 04 16  05 16 53.842   +17 23 55.11  .31056 1.2932 171.0 20.9 1.97   5
2024 12 04 17  05 16 49.126   +17 26 02.92  .31038 1.2931 171.1 20.9 2.03   4
2024 12 04 18  05 16 44.402   +17 28 10.88  .31021 1.2929 171.1 20.9 2.08   4
2024 12 04 19  05 16 39.670   +17 30 19.00  .31003 1.2928 171.2 20.9 2.14   4
2024 12 04 20  05 16 34.928   +17 32 27.27  .30985 1.2926 171.3 20.9 2.19   3
2024 12 04 21  05 16 30.177   +17 34 35.70  .30968 1.2925 171.3 20.9 2.25   3
2024 12 04 22  05 16 25.418   +17 36 44.28  .30950 1.2924 171.4 20.9 2.30   3
2024 12 04 23  05 16 20.649   +17 38 53.02  .30933 1.2922 171.5 20.9 2.36   2